﻿#,"Date Time, GMT+00:00","Temp, °C (LGR S/N: 10121358, SEN S/N: 10121358)","RH, % (LGR S/N: 10121358, SEN S/N: 10121358)","DewPt, °C (LGR S/N: 10121358, SEN S/N: 10121358)",Coupler Detached (LGR S/N: 10121358),Coupler Attached (LGR S/N: 10121358),Host Connected (LGR S/N: 10121358),End Of File (LGR S/N: 10121358)
1,3/29/2019 12:00,14.625,55.857,6.18,Logged,,,
2,3/29/2019 12:15,15.175,56.061,6.746,,,,
3,3/29/2019 12:30,16.106,51.762,6.485,,,,
4,3/29/2019 12:45,16.034,51.29,6.288,,,,
5,3/29/2019 13:00,16.892,51.036,7.012,,,,
6,3/29/2019 13:15,16.225,52.334,6.751,,,,
7,3/29/2019 13:30,15.891,53.974,6.879,,,,
8,3/29/2019 13:45,16.368,52.754,6.998,,,,
9,3/29/2019 14:00,16.487,52.309,6.988,,,,
10,3/29/2019 14:15,17.011,51.238,7.178,,,,
11,3/29/2019 14:30,18.152,47.581,7.167,,,,
12,3/29/2019 14:45,18.652,41.826,5.762,,,,
13,3/29/2019 15:00,18.533,42.39,5.848,,,,
14,3/29/2019 15:15,19.175,42.11,6.332,,,,
15,3/29/2019 15:30,19.413,43.803,7.119,,,,
16,3/29/2019 15:45,18.866,44.949,6.997,,,,
17,3/29/2019 16:00,17.938,47.836,7.048,,,,
18,3/29/2019 16:15,16.749,50.459,6.717,,,,
19,3/29/2019 16:30,16.939,50.236,6.83,,,,
20,3/29/2019 16:45,16.511,50.643,6.549,,,,
21,3/29/2019 17:00,14.266,56.105,5.906,,,,
22,3/29/2019 17:15,13.522,58.544,5.801,,,,
23,3/29/2019 17:30,13.401,59.211,5.845,,,,
24,3/29/2019 17:45,13.016,58.285,5.263,,,,
25,3/29/2019 18:00,12.509,58.623,4.866,,,,
26,3/29/2019 18:15,12.074,60.864,4.971,,,,
27,3/29/2019 18:30,11.71,62.858,5.068,,,,
28,3/29/2019 18:45,11.37,64.518,5.099,,,,
29,3/29/2019 19:00,10.98,66.845,5.209,,,,
30,3/29/2019 19:15,10.687,68.708,5.3,,,,
31,3/29/2019 19:30,10.345,70.091,5.239,,,,
32,3/29/2019 19:45,9.854,72.5,5.218,,,,
33,3/29/2019 20:00,9.46,74.564,5.21,,,,
34,3/29/2019 20:15,9.04,76.352,5.115,,,,
35,3/29/2019 20:30,8.643,78.072,5.022,,,,
36,3/29/2019 20:45,8.494,79.125,5.051,,,,
37,3/29/2019 21:00,8.12,79.907,4.814,,,,
38,3/29/2019 21:15,7.87,80.899,4.73,,,,
39,3/29/2019 21:30,7.695,81.634,4.675,,,,
40,3/29/2019 21:45,7.393,82.418,4.503,,,,
41,3/29/2019 22:00,7.142,83.181,4.374,,,,
42,3/29/2019 22:15,6.914,84.13,4.295,,,,
43,3/29/2019 22:30,6.813,84.632,4.272,,,,
44,3/29/2019 22:45,6.712,85.132,4.247,,,,
45,3/29/2019 23:00,6.458,85.593,4.065,,,,
46,3/29/2019 23:15,6.408,86.18,4.102,,,,
47,3/29/2019 23:30,6.306,86.519,4.051,,,,
48,3/29/2019 23:45,6.179,87.11,4.011,,,,
49,3/30/2019 0:00,6.077,87.549,3.974,,,,
50,3/30/2019 0:15,5.949,87.544,3.847,,,,
51,3/30/2019 0:30,6,87.685,3.917,,,,
52,3/30/2019 0:45,5.898,87.814,3.835,,,,
53,3/30/2019 1:00,5.745,88.111,3.725,,,,
54,3/30/2019 1:15,5.668,88.4,3.69,,,,
55,3/30/2019 1:30,5.385,88.713,3.454,,,,
56,3/30/2019 1:45,5.539,89.135,3.666,,,,
57,3/30/2019 2:00,5.462,89.396,3.626,,,,
58,3/30/2019 2:15,5.282,90.012,3.533,,,,
59,3/30/2019 2:30,5.154,90.132,3.422,,,,
60,3/30/2019 2:45,4.921,90.832,3.286,,,,
61,3/30/2019 3:00,4.688,91.728,3.175,,,,
62,3/30/2019 3:15,4.454,92.469,3.041,,,,
63,3/30/2019 3:30,4.246,93.237,2.934,,,,
64,3/30/2019 3:45,4.037,94.049,2.831,,,,
65,3/30/2019 4:00,4.063,94.698,2.941,,,,
66,3/30/2019 4:15,4.089,95.37,3.052,,,,
67,3/30/2019 4:30,4.089,95.787,3.105,,,,
68,3/30/2019 4:45,4.272,96.18,3.337,,,,
69,3/30/2019 5:00,4.141,96.438,3.239,,,,
70,3/30/2019 5:15,4.194,96.599,3.311,,,,
71,3/30/2019 5:30,4.063,96.758,3.2,,,,
72,3/30/2019 5:45,4.194,96.892,3.348,,,,
73,3/30/2019 6:00,4.141,96.975,3.306,,,,
74,3/30/2019 6:15,3.985,96.98,3.149,,,,
75,3/30/2019 6:30,4.115,97.065,3.291,,,,
76,3/30/2019 6:45,4.298,97.043,3.471,,,,
77,3/30/2019 7:00,4.454,96.866,3.606,,,,
78,3/30/2019 7:15,4.714,96.669,3.841,,,,
79,3/30/2019 7:30,5.076,96.18,4.142,,,,
80,3/30/2019 7:45,5.179,95.271,4.13,,,,
81,3/30/2019 8:00,5.821,93.879,4.59,,,,
82,3/30/2019 8:15,6.357,92.061,4.881,,,,
83,3/30/2019 8:30,6.357,90.463,4.662,,,,
84,3/30/2019 8:45,6.509,89.634,4.698,,,,
85,3/30/2019 9:00,6.712,88.376,4.721,,,,
86,3/30/2019 9:15,7.318,86.034,4.979,,,,
87,3/30/2019 9:30,8.145,83.042,5.338,,,,
88,3/30/2019 9:45,7.97,81.59,4.938,,,,
89,3/30/2019 10:00,8.27,80.37,5.036,,,,
90,3/30/2019 10:15,8.891,78.234,5.291,,,,
91,3/30/2019 10:30,9.287,77.062,5.478,,,,
92,3/30/2019 10:45,9.903,75.541,5.813,,,,
93,3/30/2019 11:00,9.706,74.254,5.393,,,,
94,3/30/2019 11:15,11.127,71.373,6.236,,,,
95,3/30/2019 11:30,10.516,70.662,5.513,,,,
96,3/30/2019 11:45,11.273,70.836,6.275,,,,
97,3/30/2019 12:00,11.443,69.505,6.182,,,,
98,3/30/2019 12:15,13.016,68.138,7.421,,,,
99,3/30/2019 12:30,12.678,66.692,6.802,,,,
100,3/30/2019 12:45,13.305,67.007,7.467,,,,
101,3/30/2019 13:00,13.209,65.568,7.075,,,,
102,3/30/2019 13:15,13.738,64.728,7.401,,,,
103,3/30/2019 13:30,15.055,64.077,8.515,,,,
104,3/30/2019 13:45,13.954,68.455,8.385,,,,
105,3/30/2019 14:00,13.858,64.457,7.457,,,,
106,3/30/2019 14:15,14.17,64.394,7.741,,,,
107,3/30/2019 14:30,14.792,61.104,7.598,,,,
108,3/30/2019 14:45,15.031,61.5,7.915,,,,
109,3/30/2019 15:00,15.151,59.94,7.667,,,,
110,3/30/2019 15:15,15.891,57.592,7.799,,,,
111,3/30/2019 15:30,16.511,57.627,8.39,,,,
112,3/30/2019 15:45,16.368,55.236,7.652,,,,
113,3/30/2019 16:00,13.834,60.144,6.47,,,,
114,3/30/2019 16:15,15.127,58.467,7.294,,,,
115,3/30/2019 16:30,13.666,62.013,6.737,,,,
116,3/30/2019 16:45,15.199,60.127,7.756,,,,
117,3/30/2019 17:00,14.673,59.922,7.211,,,,
118,3/30/2019 17:15,14.194,61.805,7.191,,,,
119,3/30/2019 17:30,12.678,64.572,6.358,,,,
120,3/30/2019 17:45,12.775,65.55,6.657,,,,
121,3/30/2019 18:00,12.847,67.531,7.136,,,,
122,3/30/2019 18:15,12.292,70.179,7.13,,,,
123,3/30/2019 18:30,13.088,68.755,7.615,,,,
124,3/30/2019 18:45,12.727,67.163,6.945,,,,
125,3/30/2019 19:00,13.04,71.887,8.181,,,,
126,3/30/2019 19:15,11.127,74.961,6.898,,,,
127,3/30/2019 19:30,9.361,80.721,6.162,,,,
128,3/30/2019 19:45,9.262,82.792,6.398,,,,
129,3/30/2019 20:00,8.717,84.209,6.083,,,,
130,3/30/2019 20:15,8.469,85.418,6.023,,,,
131,3/30/2019 20:30,8.568,85.625,6.152,,,,
132,3/30/2019 20:45,8.618,85.9,6.243,,,,
133,3/30/2019 21:00,8.469,86.206,6.141,,,,
134,3/30/2019 21:15,8.369,86.601,6.102,,,,
135,3/30/2019 21:30,8.12,86.906,5.901,,,,
136,3/30/2019 21:45,7.895,87.84,5.815,,,,
137,3/30/2019 22:00,7.72,88.781,5.778,,,,
138,3/30/2019 22:15,7.419,89.889,5.636,,,,
139,3/30/2019 22:30,7.242,91.02,5.62,,,,
140,3/30/2019 22:45,7.066,91.535,5.515,,,,
141,3/30/2019 23:00,6.864,92.041,5.383,,,,
142,3/30/2019 23:15,6.813,92.356,5.376,,,,
143,3/30/2019 23:30,6.763,91.939,5.269,,,,
144,3/30/2019 23:45,6.813,90.554,5.129,,,,
145,3/31/2019 0:00,6.889,87.645,4.791,,,,
146,3/31/2019 0:15,6.914,81.405,3.873,,,,
147,3/31/2019 0:30,6.813,84.212,4.208,,,,
148,3/31/2019 0:45,6.661,85.355,4.23,,,,
149,3/31/2019 1:00,6.661,82.964,3.868,,,,
150,3/31/2019 1:15,6.661,78.886,3.222,,,,
151,3/31/2019 1:30,6.611,75.706,2.641,,,,
152,3/31/2019 1:45,6.535,75.963,2.611,,,,
153,3/31/2019 2:00,6.509,76.528,2.682,,,,
154,3/31/2019 2:15,6.484,76.903,2.72,,,,
155,3/31/2019 2:30,6.484,76.74,2.693,,,,
156,3/31/2019 2:45,6.509,77.774,2.89,,,,
157,3/31/2019 3:00,6.408,80.277,3.198,,,,
158,3/31/2019 3:15,6.382,80.778,3.253,,,,
159,3/31/2019 3:30,6.382,81.204,3.32,,,,
160,3/31/2019 3:45,6.357,81.385,3.323,,,,
161,3/31/2019 4:00,6.357,81.518,3.344,,,,
162,3/31/2019 4:15,6.306,82.354,3.424,,,,
163,3/31/2019 4:30,6.204,83.386,3.483,,,,
164,3/31/2019 4:45,6.026,84.55,3.483,,,,
165,3/31/2019 5:00,5.898,85.849,3.55,,,,
166,3/31/2019 5:15,5.796,86.913,3.604,,,,
167,3/31/2019 5:30,5.745,87.519,3.641,,,,
168,3/31/2019 5:45,5.668,87.861,3.613,,,,
169,3/31/2019 6:00,5.539,88.342,3.555,,,,
170,3/31/2019 6:15,5.642,88.573,3.689,,,,
171,3/31/2019 6:30,5.77,88.399,3.791,,,,
172,3/31/2019 6:45,5.796,88.329,3.807,,,,
173,3/31/2019 7:00,6,87.84,3.939,,,,
174,3/31/2019 7:15,6.204,86.442,3.939,,,,
175,3/31/2019 7:30,7.041,83.079,4.259,,,,
176,3/31/2019 7:45,7.268,79.369,3.893,,,,
177,3/31/2019 8:00,7.77,75.456,3.725,,,,
178,3/31/2019 8:15,8.02,74.325,3.77,,,,
179,3/31/2019 8:30,8.17,70.854,3.287,,,,
180,3/31/2019 8:45,8.419,69.526,3.277,,,,
181,3/31/2019 9:00,8.07,68.924,2.826,,,,
182,3/31/2019 9:15,9.04,71.079,4.168,,,,
183,3/31/2019 9:30,9.238,65.956,3.361,,,,
184,3/31/2019 9:45,8.767,64.465,2.607,,,,
185,3/31/2019 10:00,9.558,61.589,2.748,,,,
186,3/31/2019 10:15,10.98,58.054,3.292,,,,
187,3/31/2019 10:30,9.756,59.748,2.527,,,,
188,3/31/2019 10:45,9.756,56.793,1.843,,,,
189,3/31/2019 11:00,10.418,52.578,1.42,,,,
190,3/31/2019 11:15,10.418,52.94,1.513,,,,
191,3/31/2019 11:30,10.663,52.522,1.633,,,,
192,3/31/2019 11:45,10.271,56.605,2.283,,,,
193,3/31/2019 12:00,10.051,56.125,1.96,,,,
194,3/31/2019 12:15,10.394,53.63,1.666,,,,
195,3/31/2019 12:30,9.78,53.901,1.161,,,,
196,3/31/2019 12:45,10.296,52.379,1.255,,,,
197,3/31/2019 13:00,10.736,53.68,1.998,,,,
198,3/31/2019 13:15,9.854,52.527,0.882,,,,
199,3/31/2019 13:30,9.903,53.648,1.213,,,,
200,3/31/2019 13:45,9.78,53.45,1.048,,,,
201,3/31/2019 14:00,10.247,53.126,1.401,,,,
202,3/31/2019 14:15,9.829,53.788,1.179,,,,
203,3/31/2019 14:30,10.026,52.008,0.907,,,,
204,3/31/2019 14:45,10.296,52.107,1.184,,,,
205,3/31/2019 15:00,10.638,51.215,1.268,,,,
206,3/31/2019 15:15,9.952,52.239,0.899,,,,
207,3/31/2019 15:30,10.271,51.407,0.978,,,,
208,3/31/2019 15:45,10.296,49.829,0.578,,,,
209,3/31/2019 16:00,9.682,52.321,0.668,,,,
210,3/31/2019 16:15,10.051,54.51,1.566,,,,
211,3/31/2019 16:30,9.706,55.327,1.444,,,,
212,3/31/2019 16:45,9.163,56.078,1.117,,,,
213,3/31/2019 17:00,9.114,56.783,1.238,,,,
214,3/31/2019 17:15,9.262,55.26,1.012,,,,
215,3/31/2019 17:30,8.668,56.447,0.74,,,,
216,3/31/2019 17:45,8.643,57.597,0.986,,,,
217,3/31/2019 18:00,8.245,58.564,0.833,,,,
218,3/31/2019 18:15,7.995,59.373,0.779,,,,
219,3/31/2019 18:30,7.72,61.019,0.881,,,,
220,3/31/2019 18:45,7.217,63.446,0.919,,,,
221,3/31/2019 19:00,6.813,65.548,0.961,,,,
222,3/31/2019 19:15,6.535,67.028,0.986,,,,
223,3/31/2019 19:30,6.382,68.717,1.164,,,,
224,3/31/2019 19:45,6.128,70.818,1.31,,,,
225,3/31/2019 20:00,6,71.015,1.223,,,,
226,3/31/2019 20:15,5.821,71.839,1.199,,,,
227,3/31/2019 20:30,5.668,72.8,1.222,,,,
228,3/31/2019 20:45,5.437,73.605,1.139,,,,
229,3/31/2019 21:00,5.231,74.273,1.055,,,,
230,3/31/2019 21:15,5.257,74.006,1.034,,,,
231,3/31/2019 21:30,5.024,74.803,0.946,,,,
232,3/31/2019 21:45,4.818,76.17,0.975,,,,
233,3/31/2019 22:00,4.61,77.15,0.935,,,,
234,3/31/2019 22:15,4.61,78.009,1.076,,,,
235,3/31/2019 22:30,4.662,77.859,1.102,,,,
236,3/31/2019 22:45,4.662,77.403,1.027,,,,
237,3/31/2019 23:00,4.869,77.421,1.233,,,,
238,3/31/2019 23:15,4.869,77.233,1.202,,,,
239,3/31/2019 23:30,4.792,77.887,1.233,,,,
240,3/31/2019 23:45,4.48,79.076,1.12,,,,
241,4/1/2019 0:00,4.22,80.345,1.066,,,,
242,4/1/2019 0:15,4.141,80.804,1.06,,,,
243,4/1/2019 0:30,4.115,81.141,1.087,,,,
244,4/1/2019 0:45,4.141,80.83,1.064,,,,
245,4/1/2019 1:00,4.194,80.578,1.076,,,,
246,4/1/2019 1:15,3.958,80.63,0.854,,,,
247,4/1/2019 1:30,4.011,81.17,0.989,,,,
248,4/1/2019 1:45,4.037,81.202,1.019,,,,
249,4/1/2019 2:00,4.141,81.12,1.109,,,,
250,4/1/2019 2:15,4.141,81.094,1.105,,,,
251,4/1/2019 2:30,4.089,81.398,1.101,,,,
252,4/1/2019 2:45,4.089,81.135,1.06,,,,
253,4/1/2019 3:00,4.272,80.648,1.164,,,,
254,4/1/2019 3:15,4.35,79.871,1.119,,,,
255,4/1/2019 3:30,4.376,79.159,1.032,,,,
256,4/1/2019 3:45,4.402,78.552,0.96,,,,
257,4/1/2019 4:00,4.402,77.856,0.848,,,,
258,4/1/2019 4:15,4.402,76.944,0.699,,,,
259,4/1/2019 4:30,4.454,75.552,0.518,,,,
260,4/1/2019 4:45,4.35,75.341,0.381,,,,
261,4/1/2019 5:00,4.298,75.005,0.274,,,,
262,4/1/2019 5:15,4.141,74.999,0.121,,,,
263,4/1/2019 5:30,4.168,74.38,0.042,,,,
264,4/1/2019 5:45,4.194,74.549,0.096,,,,
265,4/1/2019 6:00,4.376,73.879,0.158,,,,
266,4/1/2019 6:15,4.454,73.377,0.147,,,,
267,4/1/2019 6:30,4.454,73.103,0.1,,,,
268,4/1/2019 6:45,4.402,73.066,0.043,,,,
269,4/1/2019 7:00,4.506,72.868,0.109,,,,
270,4/1/2019 7:15,4.61,72.587,0.16,,,,
271,4/1/2019 7:30,5.231,72.025,0.661,,,,
272,4/1/2019 7:45,5.642,71.194,0.91,,,,
273,4/1/2019 8:00,5.847,70.263,0.937,,,,
274,4/1/2019 8:15,6.077,69.387,0.996,,,,
275,4/1/2019 8:30,6.408,68.722,1.189,,,,
276,4/1/2019 8:45,6.255,68.861,1.069,,,,
277,4/1/2019 9:00,6.153,69.066,1.01,,,,
278,4/1/2019 9:15,6.839,69.337,1.72,,,,
279,4/1/2019 9:30,6.763,70.385,1.843,,,,
280,4/1/2019 9:45,7.318,68.838,2.087,,,,
281,4/1/2019 10:00,7.594,67.818,2.156,,,,
282,4/1/2019 10:15,7.619,68.219,2.258,,,,
283,4/1/2019 10:30,7.82,68.651,2.533,,,,
284,4/1/2019 10:45,8.668,66.995,3.024,,,,
285,4/1/2019 11:00,7.92,67,2.308,,,,
286,4/1/2019 11:15,8.419,65.837,2.554,,,,
287,4/1/2019 11:30,8.593,65.153,2.582,,,,
288,4/1/2019 11:45,8.916,64.348,2.724,,,,
289,4/1/2019 12:00,9.558,64.893,3.45,,,,
290,4/1/2019 12:15,10.198,60.76,3.172,,,,
291,4/1/2019 12:30,9.903,62.463,3.265,,,,
292,4/1/2019 12:45,9.731,63.073,3.232,,,,
293,4/1/2019 13:00,10.124,61.888,3.35,,,,
294,4/1/2019 13:15,10.614,60.917,3.601,,,,
295,4/1/2019 13:30,10.247,61.821,3.452,,,,
296,4/1/2019 13:45,10.638,60.979,3.638,,,,
297,4/1/2019 14:00,10.956,60.267,3.779,,,,
298,4/1/2019 14:15,11.321,60.327,4.138,,,,
299,4/1/2019 14:30,11.953,57.551,4.088,,,,
300,4/1/2019 14:45,12.243,56.13,4.017,,,,
301,4/1/2019 15:00,12.847,53.442,3.905,,,,
302,4/1/2019 15:15,13.04,53.743,4.162,,,,
303,4/1/2019 15:30,13.57,52.816,4.413,,,,
304,4/1/2019 15:45,12.001,54.861,3.476,,,,
305,4/1/2019 16:00,12.775,54.129,4.014,,,,
306,4/1/2019 16:15,12.558,53.794,3.725,,,,
307,4/1/2019 16:30,12.316,54.847,3.767,,,,
308,4/1/2019 16:45,11.783,56.659,3.714,,,,
309,4/1/2019 17:00,11.904,56.827,3.869,,,,
310,4/1/2019 17:15,11.832,57.652,3.998,,,,
311,4/1/2019 17:30,11.54,58.41,3.903,,,,
312,4/1/2019 17:45,11.37,59.686,4.038,,,,
313,4/1/2019 18:00,11.273,60.319,4.09,,,,
314,4/1/2019 18:15,11.005,61.685,4.141,,,,
315,4/1/2019 18:30,10.858,62.48,4.176,,,,
316,4/1/2019 18:45,10.59,63.569,4.155,,,,
317,4/1/2019 19:00,10.369,64.892,4.224,,,,
318,4/1/2019 19:15,10.051,66.246,4.197,,,,
319,4/1/2019 19:30,9.756,67.566,4.18,,,,
320,4/1/2019 19:45,9.632,68.511,4.248,,,,
321,4/1/2019 20:00,9.361,69.819,4.239,,,,
322,4/1/2019 20:15,9.114,70.757,4.179,,,,
323,4/1/2019 20:30,8.742,73.031,4.239,,,,
324,4/1/2019 20:45,8.568,74.548,4.342,,,,
325,4/1/2019 21:00,8.394,75.448,4.331,,,,
326,4/1/2019 21:15,8.07,76.805,4.249,,,,
327,4/1/2019 21:30,7.87,77.797,4.221,,,,
328,4/1/2019 21:45,7.72,78.198,4.142,,,,
329,4/1/2019 22:00,7.594,79.009,4.153,,,,
330,4/1/2019 22:15,7.519,79.316,4.13,,,,
331,4/1/2019 22:30,7.192,80.077,3.934,,,,
332,4/1/2019 22:45,7.091,80.751,3.943,,,,
333,4/1/2019 23:00,6.99,80.915,3.87,,,,
334,4/1/2019 23:15,7.015,80.761,3.87,,,,
335,4/1/2019 23:30,6.889,81.026,3.789,,,,
336,4/1/2019 23:45,6.788,81.19,3.715,,,,
337,4/2/2019 0:00,6.763,81.317,3.711,,,,
338,4/2/2019 0:15,6.737,81.444,3.706,,,,
339,4/2/2019 0:30,6.94,80.85,3.81,,,,
340,4/2/2019 0:45,6.914,80.497,3.729,,,,
341,4/2/2019 1:00,6.864,80.566,3.691,,,,
342,4/2/2019 1:15,7.015,79.984,3.746,,,,
343,4/2/2019 1:30,6.864,80.058,3.609,,,,
344,4/2/2019 1:45,6.94,80.262,3.716,,,,
345,4/2/2019 2:00,7.116,79.739,3.805,,,,
346,4/2/2019 2:15,7.192,78.894,3.741,,,,
347,4/2/2019 2:30,7.066,79.19,3.667,,,,
348,4/2/2019 2:45,7.116,79.255,3.726,,,,
349,4/2/2019 3:00,7.242,79.04,3.815,,,,
350,4/2/2019 3:15,7.066,80.29,3.845,,,,
351,4/2/2019 3:30,6.889,80.117,3.644,,,,
352,4/2/2019 3:45,6.458,81.035,3.368,,,,
353,4/2/2019 4:00,5.847,85.213,3.406,,,,
354,4/2/2019 4:15,5.539,87.263,3.401,,,,
355,4/2/2019 4:30,5.334,88.752,3.409,,,,
356,4/2/2019 4:45,5.282,89.606,3.477,,,,
357,4/2/2019 5:00,4.999,90.751,3.352,,,,
358,4/2/2019 5:15,4.999,91.306,3.428,,,,
359,4/2/2019 5:30,4.921,91.134,3.327,,,,
360,4/2/2019 5:45,4.869,91.172,3.281,,,,
361,4/2/2019 6:00,4.818,91.485,3.272,,,,
362,4/2/2019 6:15,4.869,91.574,3.335,,,,
363,4/2/2019 6:30,4.973,91.349,3.408,,,,
364,4/2/2019 6:45,5.282,90.773,3.637,,,,
365,4/2/2019 7:00,5.539,89.671,3.741,,,,
366,4/2/2019 7:15,5.565,88.4,3.588,,,,
367,4/2/2019 7:30,5.847,87.828,3.786,,,,
368,4/2/2019 7:45,6.077,86.463,3.816,,,,
369,4/2/2019 8:00,6.077,86.23,3.782,,,,
370,4/2/2019 8:15,6.331,85.902,3.985,,,,
371,4/2/2019 8:30,6.535,85.481,4.124,,,,
372,4/2/2019 8:45,6.484,85.417,4.064,,,,
373,4/2/2019 9:00,6.382,84.189,3.78,,,,
374,4/2/2019 9:15,6.128,84.496,3.576,,,,
375,4/2/2019 9:30,5.898,86.031,3.577,,,,
376,4/2/2019 9:45,5.924,86.167,3.622,,,,
377,4/2/2019 10:00,6.433,85.013,3.954,,,,
378,4/2/2019 10:15,6.611,80.429,3.421,,,,
379,4/2/2019 10:30,6.839,78.521,3.335,,,,
380,4/2/2019 10:45,7.041,77.049,3.287,,,,
381,4/2/2019 11:00,7.293,72.297,2.704,,,,
382,4/2/2019 11:15,7.494,70.079,2.49,,,,
383,4/2/2019 11:30,7.393,69.359,2.258,,,,
384,4/2/2019 11:45,7.72,67.559,2.226,,,,
385,4/2/2019 12:00,8.07,65.888,2.231,,,,
386,4/2/2019 12:15,8.568,61.859,1.868,,,,
387,4/2/2019 12:30,8.916,62.759,2.39,,,,
388,4/2/2019 12:45,8.145,64.384,1.997,,,,
389,4/2/2019 13:00,7.519,71.62,2.8,,,,
390,4/2/2019 13:15,9.509,62.28,2.851,,,,
391,4/2/2019 13:30,9.163,58.74,1.739,,,,
392,4/2/2019 13:45,9.262,58.049,1.674,,,,
393,4/2/2019 14:00,9.04,61.298,2.193,,,,
394,4/2/2019 14:15,8.742,62.004,2.064,,,,
395,4/2/2019 14:30,8.543,57.581,0.889,,,,
396,4/2/2019 14:45,9.903,55.834,1.752,,,,
397,4/2/2019 15:00,11.516,52.28,2.363,,,,
398,4/2/2019 15:15,12.195,50.148,2.422,,,,
399,4/2/2019 15:30,11.248,50.111,1.536,,,,
400,4/2/2019 15:45,11.662,47.988,1.325,,,,
401,4/2/2019 16:00,11.467,48.7,1.348,,,,
402,4/2/2019 16:15,8.965,57.441,1.253,,,,
403,4/2/2019 16:30,8.965,58.385,1.471,,,,
404,4/2/2019 16:45,10.051,55.797,1.881,,,,
405,4/2/2019 17:00,9.805,51.432,0.552,,,,
406,4/2/2019 17:15,8.095,55.351,-0.059,,,,
407,4/2/2019 17:30,7.645,60.308,0.655,,,,
408,4/2/2019 17:45,7.041,64.933,1.055,,,,
409,4/2/2019 18:00,6.763,66.816,1.163,,,,
410,4/2/2019 18:15,6.433,67.94,1.065,,,,
411,4/2/2019 18:30,6.23,68.576,0.991,,,,
412,4/2/2019 18:45,6.153,68.646,0.93,,,,
413,4/2/2019 19:00,6.026,68.622,0.803,,,,
414,4/2/2019 19:15,6.102,68.019,0.762,,,,
415,4/2/2019 19:30,6.077,69.08,0.939,,,,
416,4/2/2019 19:45,5.668,70.811,0.865,,,,
417,4/2/2019 20:00,5.308,72.37,0.798,,,,
418,4/2/2019 20:15,5.385,72.441,0.885,,,,
419,4/2/2019 20:30,5.411,72.005,0.832,,,,
420,4/2/2019 20:45,5.282,72.558,0.806,,,,
421,4/2/2019 21:00,5.076,73.339,0.743,,,,
422,4/2/2019 21:15,4.921,73.8,0.673,,,,
423,4/2/2019 21:30,4.766,74.341,0.616,,,,
424,4/2/2019 21:45,4.662,75.379,0.691,,,,
425,4/2/2019 22:00,4.714,75.877,0.825,,,,
426,4/2/2019 22:15,4.428,76.842,0.707,,,,
427,4/2/2019 22:30,4.272,77.694,0.694,,,,
428,4/2/2019 22:45,4.011,79.211,0.683,,,,
429,4/2/2019 23:00,4.037,79.748,0.793,,,,
430,4/2/2019 23:15,3.827,80.706,0.737,,,,
431,4/2/2019 23:30,3.67,81.985,0.779,,,,
432,4/2/2019 23:45,3.538,82.791,0.771,,,,
433,4/3/2019 0:00,3.327,83.601,0.684,,,,
434,4/3/2019 0:15,3.248,84.101,0.68,,,,
435,4/3/2019 0:30,3.248,84.282,0.706,,,,
436,4/3/2019 0:45,3.063,84.6,0.57,,,,
437,4/3/2019 1:00,2.956,84.523,0.454,,,,
438,4/3/2019 1:15,2.823,84.749,0.356,,,,
439,4/3/2019 1:30,2.717,85.162,0.311,,,,
440,4/3/2019 1:45,2.557,85.406,0.188,,,,
441,4/3/2019 2:00,2.343,85.559,-0.001,,,,
442,4/3/2019 2:15,2.477,85.437,0.113,,,,
443,4/3/2019 2:30,2.37,85.36,-0.003,,,,
444,4/3/2019 2:45,2.155,85.999,-0.124,,,,
445,4/3/2019 3:00,1.94,86.635,-0.248,,,,
446,4/3/2019 3:15,2.047,86.254,-0.195,,,,
447,4/3/2019 3:30,1.751,86.334,-0.477,,,,
448,4/3/2019 3:45,1.697,86.829,-0.461,,,,
449,4/3/2019 4:00,1.805,87.363,-0.28,,,,
450,4/3/2019 4:15,1.643,87.627,-0.404,,,,
451,4/3/2019 4:30,1.751,88.109,-0.231,,,,
452,4/3/2019 4:45,1.67,88.164,-0.304,,,,
453,4/3/2019 5:00,1.643,88.283,-0.314,,,,
454,4/3/2019 5:15,1.724,88.304,-0.231,,,,
455,4/3/2019 5:30,1.751,88.411,-0.189,,,,
456,4/3/2019 5:45,1.724,88.354,-0.224,,,,
457,4/3/2019 6:00,1.67,88.24,-0.293,,,,
458,4/3/2019 6:15,2.343,87.243,0.236,,,,
459,4/3/2019 6:30,2.262,85.795,-0.047,,,,
460,4/3/2019 6:45,2.664,85.893,0.363,,,,
461,4/3/2019 7:00,3.564,83.943,0.968,,,,
462,4/3/2019 7:15,3.38,83.588,0.734,,,,
463,4/3/2019 7:30,4.766,81.289,1.748,,,,
464,4/3/2019 7:45,5.205,79.663,1.923,,,,
465,4/3/2019 8:00,5.411,78.049,1.864,,,,
466,4/3/2019 8:15,5.821,76.572,2.02,,,,
467,4/3/2019 8:30,6.458,75.101,2.39,,,,
468,4/3/2019 8:45,6.077,73.323,1.71,,,,
469,4/3/2019 9:00,5.796,73.541,1.476,,,,
470,4/3/2019 9:15,5.77,74.63,1.64,,,,
471,4/3/2019 9:30,5.898,73.452,1.559,,,,
472,4/3/2019 9:45,6.357,73.077,1.938,,,,
473,4/3/2019 10:00,6.357,71.335,1.625,,,,
474,4/3/2019 10:15,6.382,70.701,1.534,,,,
475,4/3/2019 10:30,6.636,69.97,1.643,,,,
476,4/3/2019 10:45,6.382,69.334,1.28,,,,
477,4/3/2019 11:00,6.153,69.821,1.151,,,,
478,4/3/2019 11:15,6.56,71.403,1.834,,,,
479,4/3/2019 11:30,6.914,69.688,1.859,,,,
480,4/3/2019 11:45,7.041,69.88,2.016,,,,
481,4/3/2019 12:00,7.167,69.4,2.048,,,,
482,4/3/2019 12:15,7.368,68.988,2.164,,,,
483,4/3/2019 12:30,7.368,68.397,2.051,,,,
484,4/3/2019 12:45,7.519,66.699,1.865,,,,
485,4/3/2019 13:00,7.192,67.433,1.695,,,,
486,4/3/2019 13:15,7.494,65.414,1.585,,,,
487,4/3/2019 13:30,7.192,66.157,1.445,,,,
488,4/3/2019 13:45,6.788,69.523,1.706,,,,
489,4/3/2019 14:00,7.343,67.517,1.857,,,,
490,4/3/2019 14:15,8.668,63.295,2.268,,,,
491,4/3/2019 14:30,9.238,59.752,2.038,,,,
492,4/3/2019 14:45,8.245,59.473,1.037,,,,
493,4/3/2019 15:00,7.87,61.334,1.092,,,,
494,4/3/2019 15:15,8.494,60.595,1.522,,,,
495,4/3/2019 15:30,8.891,57.429,1.18,,,,
496,4/3/2019 15:45,8.07,60.437,1.086,,,,
497,4/3/2019 16:00,11.029,54.385,2.449,,,,
498,4/3/2019 16:15,11.88,54.149,3.184,,,,
499,4/3/2019 16:30,11.346,55.034,2.906,,,,
500,4/3/2019 16:45,11.175,51.898,1.946,,,,
501,4/3/2019 17:00,5.847,73.99,1.604,,,,
502,4/3/2019 17:15,5.924,76.486,2.105,,,,
503,4/3/2019 17:30,6.712,75.7,2.739,,,,
504,4/3/2019 17:45,6.408,76.425,2.566,,,,
505,4/3/2019 18:00,6.636,74.618,2.479,,,,
506,4/3/2019 18:15,6.484,73.268,2.095,,,,
507,4/3/2019 18:30,5.975,77.551,2.332,,,,
508,4/3/2019 18:45,5.539,80.669,2.409,,,,
509,4/3/2019 19:00,5.282,82.619,2.46,,,,
510,4/3/2019 19:15,5.179,84.376,2.623,,,,
511,4/3/2019 19:30,5.282,85.753,2.928,,,,
512,4/3/2019 19:45,5.231,86.336,2.962,,,,
513,4/3/2019 20:00,5.334,84.856,2.847,,,,
514,4/3/2019 20:15,5.437,82.181,2.544,,,,
515,4/3/2019 20:30,5.334,84.152,2.742,,,,
516,4/3/2019 20:45,5.179,84.689,2.67,,,,
517,4/3/2019 21:00,5.102,84.983,2.637,,,,
518,4/3/2019 21:15,4.947,85.88,2.615,,,,
519,4/3/2019 21:30,4.895,86.435,2.645,,,,
520,4/3/2019 21:45,4.792,87.028,2.628,,,,
521,4/3/2019 22:00,4.454,85.657,2.097,,,,
522,4/3/2019 22:15,4.298,86.445,2.056,,,,
523,4/3/2019 22:30,4.037,86.741,1.84,,,,
524,4/3/2019 22:45,4.089,86.805,1.901,,,,
525,4/3/2019 23:00,3.854,87.413,1.754,,,,
526,4/3/2019 23:15,3.88,87.624,1.81,,,,
527,4/3/2019 23:30,3.722,88.4,1.762,,,,
528,4/3/2019 23:45,3.696,89.256,1.855,,,,
529,4/4/2019 0:00,3.775,89.427,1.956,,,,
530,4/4/2019 0:15,3.854,89.599,2.058,,,,
531,4/4/2019 0:30,3.722,89.818,1.958,,,,
532,4/4/2019 0:45,3.591,90.389,1.904,,,,
533,4/4/2019 1:00,3.617,90.698,1.972,,,,
534,4/4/2019 1:15,3.485,91.166,1.904,,,,
535,4/4/2019 1:30,3.485,91.691,1.974,,,,
536,4/4/2019 1:45,3.591,92.018,2.122,,,,
537,4/4/2019 2:00,3.538,92.029,2.071,,,,
538,4/4/2019 2:15,3.38,92.336,1.954,,,,
539,4/4/2019 2:30,3.168,92.653,1.784,,,,
540,4/4/2019 2:45,3.089,93.004,1.751,,,,
541,4/4/2019 3:00,3.195,93.082,1.866,,,,
542,4/4/2019 3:15,3.142,93.167,1.825,,,,
543,4/4/2019 3:30,3.142,93.216,1.831,,,,
544,4/4/2019 3:45,3.036,93.213,1.725,,,,
545,4/4/2019 4:00,2.983,93.248,1.677,,,,
546,4/4/2019 4:15,2.877,93.245,1.57,,,,
547,4/4/2019 4:30,2.903,93.252,1.598,,,,
548,4/4/2019 4:45,2.877,93.245,1.57,,,,
549,4/4/2019 5:00,2.85,93.386,1.562,,,,
550,4/4/2019 5:15,3.009,93.379,1.72,,,,
551,4/4/2019 5:30,3.089,93.252,1.783,,,,
552,4/4/2019 5:45,3.142,93.192,1.828,,,,
553,4/4/2019 6:00,3.221,92.94,1.874,,,,
554,4/4/2019 6:15,3.195,92.586,1.802,,,,